Location: Los Gatos B&B
(42.6926°N, 77.0646°W)
Time: 00:38:00
(UTC-04:00)

Amateur Radio Satellites - All Passes

Search period start: 29 July 2014 00:08
Search period end: 30 July 2014 00:08
Location: Los Gatos B&B, 42.6926°N, 77.0646°W

Satellite Date Start Highest point End Downlink Frequencies (MHz)
Time Altitude Azimuth
ISS 29 Jul 00:30:28 00:33:48 89° 325° (NW) 00:37:10 145.800 FM
UOSAT-12 29 Jul 00:40:11 00:44:15 29° 246° (WSW) 00:48:15 437.025 FM, 437.400 FM
Sapphire 29 Jul 00:45:14 00:50:10 38° 111° (ESE) 00:55:08 437.095 MHz 1200 baud AX-25 AFSK
RS-15 29 Jul 00:48:54 00:58:14 33° 254° (WSW) 01:07:53 29.354 - 29.394 USB, Beacon 29.352 USB
PCSat 29 Jul 01:18:05 01:23:28 77° 118° (ESE) 01:28:55 145.825 MHz
AO-40 29 Jul 01:25:54 04:08:36 22° 127° (SE) 05:25:13 Beacon 2401.320
Oscar 16 29 Jul 01:39:58 01:43:32 19° 92° (E) 01:47:04 437.025 USB, Beacon 2401.1428
ITAMSAT 1 29 Jul 02:01:49 02:03:53 12° 89° (E) 02:05:58 435.822 SSB
ISS 29 Jul 02:08:08 02:10:53 23° 345° (NNW) 02:13:38 145.800 FM
AO-27 29 Jul 02:19:41 02:23:22 19° 92° (E) 02:27:01 436.795 MHz FM
Uribyol 2 29 Jul 02:19:54 02:23:40 20° 93° (E) 02:27:25 436.500 FM
Sapphire 29 Jul 02:28:42 02:33:36 34° 310° (NW) 02:38:33 437.095 MHz 1200 baud AX-25 AFSK
Gurwin Techsat 1B 29 Jul 02:42:30 02:44:54 13° 89° (E) 02:47:17 435.225 FM
Oscar 19 29 Jul 02:49:39 02:54:51 79° 103° (ESE) 03:00:02 437.125 CW, 437.150 USB
PCSat 29 Jul 03:03:34 03:07:31 20° 318° (NW) 03:11:29 145.825 MHz
AO-Echo 29 Jul 03:06:57 03:11:57 55° 100° (E) 03:16:46 ?
Oscar 16 29 Jul 03:18:10 03:23:13 56° 288° (WNW) 03:28:16 437.025 USB, Beacon 2401.1428
OPAL 29 Jul 03:23:37 03:27:55 31° 64° (ENE) 03:32:15 ?
JAS-1B 29 Jul 03:25:47 03:35:00 55° 97° (E) 03:42:51 435.800 - 435.900 CW/SSB
ITAMSAT 1 29 Jul 03:38:48 03:44:00 81° 286° (WNW) 03:49:10 435.822 SSB
ISS 29 Jul 03:46:02 03:48:27 18° 5° (N) 03:50:52 145.800 FM
Oscar 10/S400 29 Jul 03:48:09 04:51:26 53° 212° (SSW) 11:47:44 145.825 - 145.975 CW/USB, Beacon 145.810 USB
TMSAT-1 29 Jul 03:55:53 04:00:59 46° 99° (E) 04:06:02 436.925 FM
AO-27 29 Jul 03:58:09 04:03:12 53° 289° (WNW) 04:08:13 436.795 MHz FM
Uribyol 2 29 Jul 03:58:26 04:03:26 51° 289° (WNW) 04:08:24 436.500 FM
Gurwin Techsat 1B 29 Jul 04:20:09 04:25:29 80° 285° (WNW) 04:30:47 435.225 FM
Oscar 19 29 Jul 04:30:45 04:33:32 15° 301° (WNW) 04:36:19 437.125 CW, 437.150 USB
AO-7 29 Jul 04:44:24 04:51:47 34° 96° (E) 04:59:04 29.400 - 29.500 MHz
AO-Echo 29 Jul 04:46:44 04:50:16 19° 298° (WNW) 04:53:42 ?
OPAL 29 Jul 05:02:21 05:06:45 32° 261° (W) 05:11:11 ?
Uosat F 29 Jul 05:03:54 05:08:42 44° 99° (E) 05:13:27 435.120 FM
JAS-1B 29 Jul 05:16:33 05:25:07 40° 300° (WNW) 05:32:40 435.800 - 435.900 CW/SSB
ITAMSAT 1 29 Jul 05:20:59 05:22:39 12° 304° (WNW) 05:24:18 435.822 SSB
ISS 29 Jul 05:22:39 05:25:50 38° 25° (NNE) 05:29:01 145.800 FM
MaSat-1 29 Jul 05:23:40 05:26:31 14° 43° (NE) 05:29:21 437.345 MHz
KITSAT 1 29 Jul 05:28:35 05:34:52 26° 104° (ESE) 05:41:09 435.175 FM
TMSAT-1 29 Jul 05:36:25 05:40:37 25° 296° (WNW) 05:44:48 436.925 FM
STRAND 1 29 Jul 05:47:39 05:51:13 19° 62° (ENE) 05:54:47 ?
Hamsat 29 Jul 05:52:58 05:53:22 10° 88° (E) 05:53:46 145.90 MHz
Gurwin Techsat 1B 29 Jul 06:02:46 06:04:34 12° 303° (WNW) 06:06:23 435.225 FM
AO-7 29 Jul 06:36:48 06:44:53 57° 295° (WNW) 06:52:55 29.400 - 29.500 MHz
Uosat F 29 Jul 06:43:17 06:47:13 24° 296° (WNW) 06:51:07 435.120 FM
ISS 29 Jul 06:59:28 07:02:31 32° 222° (SW) 07:05:33 145.800 FM
MaSat-1 29 Jul 06:59:28 07:04:49 75° 62° (ENE) 07:09:52 437.345 MHz
JAS-2 29 Jul 07:01:18 07:06:57 43° 97° (E) 07:12:04 435.800 - 435.900 CW/SSB, 435.910 FM
JAS-1B 29 Jul 07:11:24 07:12:46 10° 323° (NW) 07:14:08 435.800 - 435.900 CW/SSB
KITSAT 1 29 Jul 07:21:24 07:29:30 74° 304° (NW) 07:37:38 435.175 FM
STRAND 1 29 Jul 07:24:53 07:29:57 58° 259° (W) 07:35:03 ?
Hamsat 29 Jul 07:25:31 07:29:49 73° 284° (WNW) 07:34:08 145.90 MHz
SO-67 29 Jul 07:48:11 07:51:14 28° 96° (E) 07:54:15 435.3500 MHz FM
Saudisat 1A 29 Jul 08:06:32 08:10:56 74° 122° (ESE) 08:15:22 436.775 MHz
PCSat 29 Jul 08:23:20 08:26:22 15° 37° (NE) 08:29:23 145.825 MHz
AO-7 29 Jul 08:32:02 08:35:54 14° 317° (NW) 08:39:45 29.400 - 29.500 MHz
MaSat-1 29 Jul 08:38:31 08:41:27 15° 260° (W) 08:44:19 437.345 MHz
JAS-2 29 Jul 08:46:49 08:51:47 27° 298° (WNW) 08:56:20 435.800 - 435.900 CW/SSB, 435.910 FM
HO-68 29 Jul 09:08:01 09:13:27 23° 92° (E) 09:18:51 435.675 MHz FM
KITSAT 1 29 Jul 09:20:12 09:26:23 23° 328° (NNW) 09:32:34 435.175 FM
SO-67 29 Jul 09:21:45 09:24:06 17° 292° (WNW) 09:26:27 435.3500 MHz FM
Sapphire 29 Jul 09:32:07 09:37:10 38° 51° (NE) 09:42:11 437.095 MHz 1200 baud AX-25 AFSK
UKube-1 29 Jul 09:41:50 09:45:12 22° 94° (E) 09:48:32 145.840 MHz, 145.915 MHz
Saudisat 1A 29 Jul 09:48:04 09:51:02 17° 321° (NW) 09:54:00 436.775 MHz
PCSat 29 Jul 10:05:21 10:10:47 71° 58° (ENE) 10:16:11 145.825 MHz
Oscar 11 29 Jul 10:26:15 10:30:13 34° 97° (E) 10:34:11 145.825 FM, Beacon 2401.500 USB
FUNcube-1 29 Jul 10:48:49 10:52:05 22° 94° (E) 10:55:22 145.950 - 145.970 MHz USB
HO-68 29 Jul 10:54:37 11:01:44 69° 290° (WNW) 11:08:47 435.675 MHz FM
Sapphire 29 Jul 11:15:41 11:20:32 34° 250° (WSW) 11:25:21 437.095 MHz 1200 baud AX-25 AFSK
UKube-1 29 Jul 11:17:31 11:21:29 35° 291° (WNW) 11:25:26 145.840 MHz, 145.915 MHz
KITSAT 1 29 Jul 11:22:11 11:25:29 13° 358° (N) 11:28:46 435.175 FM
PCSat 29 Jul 11:50:16 11:53:34 17° 256° (WSW) 11:56:52 145.825 MHz
Oscar 11 29 Jul 12:02:51 12:06:13 23° 294° (WNW) 12:09:35 145.825 FM, Beacon 2401.500 USB
JAS-1B 29 Jul 12:24:48 12:29:14 14° 43° (NE) 12:33:45 435.800 - 435.900 CW/SSB
FUNcube-1 29 Jul 12:24:50 12:28:32 32° 290° (WNW) 12:32:16 145.950 - 145.970 MHz USB
Oscar 19 29 Jul 12:30:36 12:33:44 17° 60° (ENE) 12:36:52 437.125 CW, 437.150 USB
HO-68 29 Jul 12:44:34 12:48:10 15° 310° (NW) 12:51:46 435.675 MHz FM
AO-Echo 29 Jul 12:45:41 12:47:24 12° 57° (ENE) 12:49:08 ?
SO-50 29 Jul 12:52:55 12:57:19 64° 120° (ESE) 13:01:50 436.795 FM
Oscar 16 29 Jul 12:57:32 13:01:54 30° 66° (ENE) 13:06:18 437.025 USB, Beacon 2401.1428
RS-15 29 Jul 13:00:41 13:10:46 42° 109° (ESE) 13:20:38 29.354 - 29.394 USB, Beacon 29.352 USB
KITSAT 1 29 Jul 13:18:59 13:24:46 21° 29° (NNE) 13:30:30 435.175 FM
ITAMSAT 1 29 Jul 13:19:45 13:23:43 23° 63° (ENE) 13:27:41 435.822 SSB
Uribyol 2 29 Jul 13:38:17 13:42:55 34° 67° (ENE) 13:47:33 436.500 FM
AO-27 29 Jul 13:38:17 13:42:54 33° 67° (ENE) 13:47:31 436.795 MHz FM
TMSAT-1 29 Jul 13:42:07 13:43:37 11° 56° (NE) 13:45:07 436.925 FM
AO-7 29 Jul 13:58:05 14:01:03 12° 41° (NE) 14:04:01 29.400 - 29.500 MHz
Gurwin Techsat 1B 29 Jul 14:03:39 14:07:48 24° 64° (ENE) 14:11:58 435.225 FM
Oscar 19 29 Jul 14:07:26 14:12:31 68° 258° (WSW) 14:17:38 437.125 CW, 437.150 USB
JAS-1B 29 Jul 14:08:42 14:17:19 51° 64° (ENE) 14:26:42 435.800 - 435.900 CW/SSB
AO-Echo 29 Jul 14:19:59 14:25:17 77° 75° (ENE) 14:30:37 ?
SO-50 29 Jul 14:35:01 14:38:19 20° 320° (NW) 14:41:41 436.795 FM
Oscar 16 29 Jul 14:36:30 14:41:09 35° 263° (W) 14:45:50 437.025 USB, Beacon 2401.1428
UOSAT-12 29 Jul 14:51:11 14:55:46 72° 121° (ESE) 15:00:27 437.025 FM, 437.400 FM
Saudisat 1A 29 Jul 14:54:38 14:56:42 13° 35° (NE) 14:58:46 436.775 MHz
ITAMSAT 1 29 Jul 14:57:49 15:02:52 50° 260° (W) 15:07:57 435.822 SSB
RS-15 29 Jul 15:11:44 15:22:40 61° 311° (NW) 15:33:29 29.354 - 29.394 USB, Beacon 29.352 USB
KITSAT 1 29 Jul 15:13:54 15:21:57 63° 54° (NE) 15:29:55 435.175 FM
TMSAT-1 29 Jul 15:17:21 15:22:38 77° 74° (ENE) 15:27:57 436.925 FM
AO-27 29 Jul 15:17:42 15:22:22 33° 264° (W) 15:27:03 436.795 MHz FM
Uribyol 2 29 Jul 15:17:47 15:22:22 31° 264° (W) 15:26:58 436.500 FM
Gurwin Techsat 1B 29 Jul 15:42:21 15:47:27 48° 261° (W) 15:52:36 435.225 FM
AO-7 29 Jul 15:43:55 15:51:51 50° 63° (ENE) 15:59:48 29.400 - 29.500 MHz
JAS-1B 29 Jul 15:59:22 16:07:47 45° 265° (W) 16:17:08 435.800 - 435.900 CW/SSB
AO-Echo 29 Jul 16:01:56 16:04:36 14° 271° (W) 16:07:17 ?
Uosat F 29 Jul 16:17:46 16:22:45 67° 73° (ENE) 16:27:47 435.120 FM
Saudisat 1A 29 Jul 16:32:40 16:37:05 73° 55° (NE) 16:41:28 436.775 MHz
UOSAT-12 29 Jul 16:33:06 16:36:26 19° 321° (NW) 16:39:49 437.025 FM, 437.400 FM
TMSAT-1 29 Jul 17:00:31 17:03:08 14° 271° (W) 17:05:45 436.925 FM
KITSAT 1 29 Jul 17:10:01 17:16:49 31° 253° (WSW) 17:23:36 435.175 FM
OPAL 29 Jul 17:10:30 17:15:32 59° 103° (ESE) 17:20:36 ?
JAS-2 29 Jul 17:13:04 17:19:19 28° 62° (ENE) 17:25:12 435.800 - 435.900 CW/SSB, 435.910 FM
RS-15 29 Jul 17:29:10 17:37:53 26° 342° (NNW) 17:46:38 29.354 - 29.394 USB, Beacon 29.352 USB
AO-7 29 Jul 17:37:05 17:44:45 40° 262° (W) 17:52:30 29.400 - 29.500 MHz
Uosat F 29 Jul 17:59:12 18:02:00 15° 269° (W) 18:04:50 435.120 FM
Saudisat 1A 29 Jul 18:14:15 18:16:04 12° 252° (WSW) 18:17:54 436.775 MHz
Hamsat 29 Jul 18:19:26 18:23:37 86° 77° (ENE) 18:27:50 145.90 MHz
SO-67 29 Jul 18:23:51 18:25:14 12° 65° (ENE) 18:26:36 435.3500 MHz FM
OPAL 29 Jul 18:50:27 18:53:59 19° 300° (WNW) 18:57:31 ?
JAS-2 29 Jul 18:56:05 19:03:51 67° 258° (WSW) 19:11:07 435.800 - 435.900 CW/SSB, 435.910 FM
STRAND 1 29 Jul 19:34:48 19:39:42 44° 99° (E) 19:44:33 ?
HO-68 29 Jul 19:38:34 19:43:34 21° 55° (NE) 19:48:34 435.675 MHz FM
SO-50 29 Jul 19:44:32 19:47:03 14° 35° (NE) 19:49:35 436.795 FM
RS-15 29 Jul 19:46:32 19:55:14 26° 18° (NNE) 20:04:03 29.354 - 29.394 USB, Beacon 29.352 USB
SO-67 29 Jul 19:54:36 19:57:55 42° 261° (W) 20:01:15 435.3500 MHz FM
UKube-1 29 Jul 20:38:21 20:41:43 22° 65° (ENE) 20:45:05 145.840 MHz, 145.915 MHz
JAS-2 29 Jul 20:47:12 20:49:53 12° 275° (W) 20:52:32 435.800 - 435.900 CW/SSB, 435.910 FM
MaSat-1 29 Jul 20:52:07 20:55:32 26° 104° (ESE) 20:59:23 437.345 MHz
STRAND 1 29 Jul 21:14:36 21:18:37 24° 296° (WNW) 21:22:37 ?
Oscar 11 29 Jul 21:22:12 21:25:58 30° 69° (ENE) 21:29:44 145.825 FM, Beacon 2401.500 USB
HO-68 29 Jul 21:23:14 21:30:25 85° 254° (WSW) 21:37:38 435.675 MHz FM
SO-50 29 Jul 21:23:42 21:28:27 72° 55° (NE) 21:33:16 436.795 FM
UOSAT-12 29 Jul 21:41:18 21:43:58 15° 35° (NE) 21:46:37 437.025 FM, 437.400 FM
FUNcube-1 29 Jul 21:46:29 21:49:41 21° 67° (ENE) 21:52:52 145.950 - 145.970 MHz USB
RS-15 29 Jul 21:59:40 22:10:33 59° 48° (NE) 22:21:45 29.354 - 29.394 USB, Beacon 29.352 USB
UKube-1 29 Jul 22:13:40 22:17:42 36° 262° (W) 22:21:46 145.840 MHz, 145.915 MHz
MaSat-1 29 Jul 22:28:48 22:32:40 34° 306° (NW) 22:37:05 437.345 MHz
Oscar 11 29 Jul 22:58:38 23:02:09 24° 265° (W) 23:05:42 145.825 FM, Beacon 2401.500 USB
SO-50 29 Jul 23:05:51 23:08:29 15° 251° (WSW) 23:11:07 436.795 FM
HO-68 29 Jul 23:15:16 23:19:06 15° 272° (W) 23:22:56 435.675 MHz FM
UOSAT-12 29 Jul 23:20:10 23:24:56 76° 55° (NE) 23:29:36 437.025 FM, 437.400 FM
FUNcube-1 29 Jul 23:21:55 23:25:53 36° 262° (W) 23:29:49 145.950 - 145.970 MHz USB
ISS 29 Jul 23:41:46 23:45:01 53° 142° (SE) 23:48:18 145.800 FM
